When you browse on this site, cookies collect data to enhance your experience and personalize the content and advertising you see.
Visit our Privacy Policy to learn more. By continuing to use the site, you agree to this use of cookies and data.
  • In Switzerland
  • List of Countries
  • For 7 days
  • Water Temperature
  • Weather Map
  • Weather Widgets
  • user-avatar
    Login

    Hourly Weather Nakhchivan

    Today, 4 June, Thursday

    Time Temperature Precipitation Wind Pressure Humidity
    00:00 +24°C° 0 mm 1 mps 684 mmHg 41%
    01:00 +23°C° 0 mm 1 mps 684 mmHg 44%
    02:00 +22°C° 0 mm 1 mps 684 mmHg 47%
    03:00 +22°C° 0 mm 1 mps 684 mmHg 49%
    04:00 +22°C° 0 mm 1 mps 684 mmHg 49%
    05:00 +23°C° 0 mm 1 mps 685 mmHg 48%
    06:00 +23°C° 0 mm 1 mps 685 mmHg 48%
    07:00 +25°C° 0 mm 1 mps 685 mmHg 43%
    08:00 +26°C° 0 mm 1 mps 686 mmHg 38%
    09:00 +27°C° 0 mm 1 mps 686 mmHg 34%
    10:00 +29°C° 0 mm 1 mps 686 mmHg 29%
    11:00 +31°C° 0 mm 2 mps 686 mmHg 24%
    12:00 +32°C° 0 mm 2 mps 686 mmHg 19%
    13:00 +34°C° 0 mm 3 mps 686 mmHg 17%
    14:00 +35°C° 0 mm 4 mps 686 mmHg 15%
    15:00 +36°C° 0 mm 5 mps 686 mmHg 12%
    16:00 +35°C° 0 mm 5 mps 686 mmHg 13%
    17:00 +35°C° 0 mm 4 mps 686 mmHg 13%
    18:00 +35°C° 0 mm 4 mps 687 mmHg 14%
    19:00 +33°C° 0 mm 4 mps 687 mmHg 18%
    20:00 +29°C° 0 mm 4 mps 687 mmHg 22%
    21:00 +27°C° 0 mm 5 mps 687 mmHg 27%
    22:00 +26°C° 0 mm 4 mps 687 mmHg 28%
    23:00 +25°C° 0 mm 4 mps 688 mmHg 30%

    Tomorrow, 5 June, Friday

    Time Temperature Precipitation Wind Pressure Humidity
    00:00 +24°C° 0 mm 3 mps 688 mmHg 31%
    01:00 +24°C° 0 mm 3 mps 688 mmHg 33%
    02:00 +22°C° 0 mm 3 mps 688 mmHg 34%
    03:00 +21°C° 0 mm 2 mps 688 mmHg 36%
    04:00 +23°C° 0 mm 2 mps 688 mmHg 35%
    05:00 +23°C° 0 mm 2 mps 688 mmHg 34%
    06:00 +23°C° 0 mm 2 mps 689 mmHg 34%
    07:00 +25°C° 0 mm 2 mps 689 mmHg 31%
    08:00 +26°C° 0 mm 2 mps 689 mmHg 29%
    09:00 +27°C° 0 mm 2 mps 689 mmHg 26%
    10:00 +28°C° 0 mm 2 mps 689 mmHg 24%
    11:00 +29°C° 0 mm 2 mps 689 mmHg 22%
    12:00 +30°C° 0 mm 2 mps 689 mmHg 20%
    13:00 +31°C° 0 mm 1 mps 688 mmHg 18%
    14:00 +32°C° 0 mm 1 mps 688 mmHg 17%
    15:00 +32°C° 0 mm 1 mps 688 mmHg 16%
    16:00 +32°C° 0 mm 2 mps 688 mmHg 16%
    17:00 +33°C° 0 mm 3 mps 688 mmHg 17%
    18:00 +33°C° 0 mm 5 mps 688 mmHg 17%
    19:00 +30°C° 0 mm 4 mps 689 mmHg 21%
    20:00 +29°C° 0 mm 4 mps 689 mmHg 25%
    21:00 +27°C° 0 mm 3 mps 689 mmHg 29%
    22:00 +26°C° 0 mm 3 mps 689 mmHg 32%
    23:00 +26°C° 0 mm 2 mps 689 mmHg 34%

    Day after tomorrow, 6 June, Saturday

    Time Temperature Precipitation Wind Pressure Humidity
    00:00 +25°C° 0 mm 2 mps 689 mmHg 37%
    01:00 +24°C° 0 mm 2 mps 689 mmHg 40%
    02:00 +23°C° 0 mm 1 mps 689 mmHg 43%
    03:00 +22°C° 0 mm 1 mps 689 mmHg 47%
    04:00 +22°C° 0.1 mm 1 mps 689 mmHg 47%
    05:00 +22°C° 0.1 mm 1 mps 689 mmHg 48%
    06:00 +22°C° 0.1 mm 1 mps 689 mmHg 48%
    07:00 +23°C° 0.3 mm 1 mps 689 mmHg 46%
    08:00 +24°C° 0.3 mm 1 mps 690 mmHg 44%
    09:00 +25°C° 0.3 mm 1 mps 690 mmHg 42%
    10:00 +27°C° 0 mm 1 mps 690 mmHg 38%
    11:00 +28°C° 0 mm 2 mps 690 mmHg 35%
    12:00 +29°C° 0 mm 2 mps 690 mmHg 31%
    13:00 +30°C° 0.2 mm 3 mps 689 mmHg 31%
    14:00 +30°C° 0.2 mm 3 mps 689 mmHg 30%
    15:00 +30°C° 0.2 mm 4 mps 689 mmHg 30%
    16:00 +28°C° 1 mm 4 mps 689 mmHg 35%
    17:00 +26°C° 1 mm 4 mps 688 mmHg 41%
    18:00 +22°C° 1 mm 5 mps 688 mmHg 47%
    19:00 +22°C° 0.1 mm 4 mps 689 mmHg 47%
    20:00 +22°C° 0.1 mm 3 mps 690 mmHg 47%
    21:00 +23°C° 0.1 mm 2 mps 690 mmHg 47%
    22:00 +23°C° 0 mm 1 mps 690 mmHg 49%
    23:00 +22°C° 0 mm 1 mps 690 mmHg 52%

    7 June, Sunday

    Time Temperature Precipitation Wind Pressure Humidity
    00:00 +22°C° 0 mm 1 mps 690 mmHg 54%
    01:00 +21°C° 0 mm 1 mps 690 mmHg 56%
    02:00 +21°C° 0 mm 1 mps 689 mmHg 58%
    03:00 +20°C° 0 mm 1 mps 689 mmHg 60%
    04:00 +20°C° 0 mm 1 mps 689 mmHg 58%
    05:00 +21°C° 0 mm 1 mps 689 mmHg 56%
    06:00 +21°C° 0 mm 1 mps 689 mmHg 54%
    07:00 +22°C° 0 mm 1 mps 690 mmHg 50%
    08:00 +23°C° 0 mm 1 mps 690 mmHg 46%
    09:00 +24°C° 0 mm 1 mps 690 mmHg 42%
    10:00 +26°C° 0 mm 1 mps 690 mmHg 38%
    11:00 +27°C° 0 mm 1 mps 690 mmHg 35%
    12:00 +28°C° 0 mm 1 mps 690 mmHg 31%
    13:00 +29°C° 0 mm 1 mps 690 mmHg 29%
    14:00 +30°C° 0 mm 1 mps 690 mmHg 27%
    15:00 +30°C° 0 mm 2 mps 690 mmHg 25%
    16:00 +30°C° 0 mm 2 mps 690 mmHg 26%
    17:00 +30°C° 0 mm 2 mps 689 mmHg 27%
    18:00 +30°C° 0 mm 3 mps 689 mmHg 28%
    19:00 +29°C° 0 mm 3 mps 690 mmHg 32%
    20:00 +27°C° 0 mm 3 mps 690 mmHg 36%
    21:00 +26°C° 0 mm 3 mps 690 mmHg 40%
    22:00 +25°C° 0 mm 3 mps 690 mmHg 42%
    23:00 +24°C° 0 mm 2 mps 690 mmHg 44%

    8 June, Monday

    Time Temperature Precipitation Wind Pressure Humidity
    00:00 +24°C° 0 mm 2 mps 689 mmHg 46%
    01:00 +23°C° 0 mm 2 mps 689 mmHg 46%
    02:00 +21°C° 0 mm 2 mps 689 mmHg 46%
    03:00 +22°C° 0 mm 1 mps 689 mmHg 47%
    04:00 +22°C° 0 mm 1 mps 689 mmHg 45%
    05:00 +22°C° 0 mm 1 mps 689 mmHg 43%
    06:00 +23°C° 0 mm 1 mps 689 mmHg 41%
    07:00 +24°C° 0 mm 1 mps 689 mmHg 37%
    08:00 +26°C° 0 mm 1 mps 689 mmHg 33%
    09:00 +27°C° 0 mm 1 mps 689 mmHg 29%
    10:00 +28°C° 0 mm 1 mps 689 mmHg 26%
    11:00 +30°C° 0 mm 1 mps 689 mmHg 22%
    12:00 +31°C° 0 mm 1 mps 689 mmHg 18%
    13:00 +32°C° 0 mm 2 mps 689 mmHg 17%
    14:00 +32°C° 0 mm 2 mps 689 mmHg 16%
    15:00 +34°C° 0 mm 2 mps 689 mmHg 14%
    16:00 +34°C° 0 mm 3 mps 689 mmHg 16%
    17:00 +33°C° 0 mm 4 mps 688 mmHg 17%
    18:00 +33°C° 0 mm 4 mps 688 mmHg 18%
    19:00 +30°C° 0 mm 4 mps 688 mmHg 22%
    20:00 +29°C° 0 mm 3 mps 689 mmHg 25%
    21:00 +27°C° 0 mm 3 mps 689 mmHg 29%
    22:00 +26°C° 0 mm 3 mps 688 mmHg 30%
    23:00 +25°C° 0 mm 3 mps 688 mmHg 32%

    9 June, Tuesday

    Time Temperature Precipitation Wind Pressure Humidity
    00:00 +24°C° 0 mm 2 mps 688 mmHg 34%
    01:00 +23°C° 0 mm 2 mps 688 mmHg 35%
    02:00 +21°C° 0 mm 2 mps 688 mmHg 36%
    03:00 +22°C° 0 mm 1 mps 687 mmHg 36%
    04:00 +22°C° 0 mm 1 mps 688 mmHg 35%
    05:00 +23°C° 0 mm 1 mps 688 mmHg 34%
    06:00 +23°C° 0 mm 1 mps 688 mmHg 32%
    07:00 +25°C° 0 mm 1 mps 688 mmHg 28%
    08:00 +26°C° 0 mm 1 mps 688 mmHg 24%
    09:00 +28°C° 0 mm 1 mps 688 mmHg 20%
    10:00 +29°C° 0 mm 2 mps 688 mmHg 17%
    11:00 +31°C° 0 mm 2 mps 688 mmHg 15%
    12:00 +32°C° 0 mm 2 mps 689 mmHg 13%
    13:00 +34°C° 0 mm 3 mps 688 mmHg 13%
    14:00 +34°C° 0 mm 3 mps 688 mmHg 12%
    15:00 +35°C° 0 mm 4 mps 688 mmHg 12%
    16:00 +34°C° 0 mm 4 mps 687 mmHg 14%
    17:00 +34°C° 0 mm 5 mps 687 mmHg 16%
    18:00 +33°C° 0 mm 5 mps 687 mmHg 18%
    19:00 +30°C° 0 mm 4 mps 687 mmHg 23%
    20:00 +28°C° 0 mm 4 mps 687 mmHg 27%
    21:00 +26°C° 0 mm 3 mps 688 mmHg 31%
    22:00 +26°C° 0 mm 3 mps 688 mmHg 33%
    23:00 +25°C° 0 mm 2 mps 687 mmHg 36%
    Show more